Location: *
(2.5500°S, 65.9667°W)
Time: 18:17:45
(UTC+00:00)

Tiros 1 despin weight - Visible Passes

Search period start: 19 April 2024 00:00
Search period end: 29 April 2024 00:00
Orbit: 579 x 623 km, 48.2° (Epoch: 19 April)

Date Brightness Start Highest point End Pass type
(mag) Time Alt. Az. Time Alt. Az. Time Alt. Az.
23 Apr ? 23:44:20 10° N 23:46:44 20° NNE 23:46:44 20° NNE visible
24 Apr ? 23:54:15 10° NNW 23:57:55 44° NNE 23:57:55 44° NNE visible
26 Apr ? 00:04:57 10° NW 00:09:08 63° W 00:09:08 63° W visible
26 Apr ? 22:35:51 10° N 22:39:20 21° NE 22:42:50 10° E visible
27 Apr ? 00:16:26 10° WNW 00:20:20 28° SW 00:20:22 28° SW visible
27 Apr ? 22:45:44 10° NNW 22:50:09 50° NE 22:54:35 10° SE visible
28 Apr ? 00:29:18 10° WSW 00:31:15 12° SW 00:31:36 12° SW visible
28 Apr ? 22:56:25 10° NW 23:00:56 66° SW 23:05:29 10° SSE visible
